Location: Sternwarte_Laufen
(47.9344°N, 12.9346°E)
Time: 16:28:44
(UTC+02:00)

ISS - Pass Details

Date: 09 May 2026
Orbit: 414 x 424 km, 51.6° (Epoch: 21 May)

Event Time Altitude Azimuth Distance (km) Brightness Sun altitude
Rises 00:04:29 0° 267° (W) 2,350 0.2 -23.4°
Reaches altitude 10° 00:06:37 10° 274° (W) 1,489 -0.8 -23.5°
Enters shadow 00:08:08 23° 286° (WNW) 922 -1.8 -23.6°
